Terminal Aerodrome Forecast
Issued by NWS

Home | Current Version | Previous Version | Text Only | Print | Product List | Glossary On
Versions: 1 2 3 4 5 6 7 8 9 10 11 12 13 14 15 16 17
000
FTAK31 PAJN 201100
TAFAGY
TAF
PAGY 201122Z 2012/2112 VRB06KT P6SM VCSH BKN070
     FM201400 VRB02KT P6SM -RA SCT025 OVC050
     FM202000 21010KT P6SM -RA SCT025 OVC050
     FM202300 21025G35KT P6SM VCSH OVC060
     FM210300 21018G24KT P6SM VCSH OVC060
     FM210600 VRB06KT P6SM VCSH OVC050
      AMD LTD TO CLD VIS AND WIND=

USA.gov is the U.S. government's official web portal to all federal, state and local government web resources and services.